Regional Weather Roundup
Issued by NWS

Home | Current Version | Previous Version | Graphics & Text | Print | Product List | Glossary On
Versions: 1 2 3 4 5 6 7 8 9 10 11 12 13 14 15 16 17 18 19 20 21 22 23 24 25 26 27 28 29 30 31 32 33 34 35 36 37 38 39 40 41 42 43 44 45 46 47 48 49 50
000
ASUS45 KBOI 191810
RWRID
WEATHER ROUNDUP FOR IDAHO
NATIONAL WEATHER SERVICE BOISE ID
1200 PM MDT FRI SEP 19 2014

NOTE: "FAIR" INDICATES FEW OR NO CLOUDS BELOW 12000 FEET
WITH NO SIGNIFICANT WEATHER AND/OR OBSTRUCTIONS TO VISIBILITY

IDZ012-014-191900-
SOUTHWEST IDAHO


CITY           SKY/WX    TMP DP  RH WIND       PRES   REMARKS
BOISE          SUNNY     70  48  45 W13       30.09S
CALDWELL       SUNNY     72  46  40 NW10      30.11S
MOUNTAIN HOME  SUNNY     73  47  39 NW14      30.08F
$$

IDZ016-017-191900-
SOUTHCENTRAL IDAHO


CITY           SKY/WX    TMP DP  RH WIND       PRES   REMARKS
BURLEY         LGT RAIN  70  47  43 W15G23    30.11F
JEROME         SUNNY     69  47  45 SW12      30.12S
TWIN FALLS     SUNNY     73  45  36 W13       30.13S
$$

IDZ019>023-191900-
SOUTHEAST IDAHO


CITY           SKY/WX    TMP DP  RH WIND       PRES   REMARKS
IDAHO FALLS    SUNNY     69  45  41 S15G24    30.11S
POCATELLO      SUNNY     71  48  43 SW21      30.12F
REXBURG        SUNNY     66  45  46 SW15      30.11S
$$

IDZ006-010-011-018-031-032-191900-
CENTRAL IDAHO MOUNTAINS


CITY           SKY/WX    TMP DP  RH WIND       PRES   REMARKS
MCCALL         SUNNY     62  42  47 E6        30.15R
HAILEY         MOSUNNY   68  45  42 E7        30.14S
STANLEY          N/A     64  38  38 VRB5      30.19F
SALMON         MOSUNNY   63  45  51 CALM      30.08S
CHALLIS        SUNNY     66  41  40 NE3       30.11S
$$

IDZ002-004-006-007-026-191900-
NORTHERN IDAHO


CITY           SKY/WX    TMP DP  RH WIND       PRES   REMARKS
LEWISTON       SUNNY     76  49  38 N7        30.05S
LOWELL           N/A     73  52  47 CALM      30.06F
COEUR D`ALENE  PTSUNNY   66  52  59 S8        30.06S
MULLAN PASS    CLOUDY    47  43  86 VRB5      30.16R
$$



USA.gov is the U.S. government's official web portal to all federal, state and local government web resources and services.